Weather History for LFPG - January, 2014

Change the Weather History Date:

Tuesday, January 21, 2014

  Actual Average Record
Temperature  
Mean Temperature 36 °F -  
Max Temperature 39 °F 44 °F 53 °F (2008)
Min Temperature 34 °F 34 °F 30 °F (1998)
Degree Days  
Heating Degree Days 28    
Moisture  
Dew Point 35 °F    
Average Humidity 90    
Maximum Humidity 100    
Minimum Humidity 79    
Precipitation  
Precipitation 0.00 in - - ()
Sea Level Pressure  
Sea Level Pressure 29.94 in    
Wind  
Wind Speed 7 mph ()    
Max Wind Speed 12 mph    
Max Gust Speed 21 mph    
Visibility 4.1 miles    
Events Fog    
Averages and records for this station are not official NWS values.
T = Trace of Precipitation, MM = Missing Value Source: Averaged Metar Reports

Daily Weather History Graph

Daily Weather History Graph

Search for Another Location

Airport or City:

Trip Planner

Search our weather history database for the weather conditions in past years. The results will help you decide how hot, cold, wet, or windy it might be!

Date:

Astronomy

Jan. 21, 2014 Rise Set
Actual Time 8:33 AM CET 5:29 PM CET
Civil Twilight 7:58 AM CET 6:04 PM CET
Nautical Twilight 7:19 AM CET 6:43 PM CET
Astronomical Twilight 6:41 AM CET 7:21 PM CET
Moon 11:18 PM CET (1/21) 10:26 AM CET (1/21)
Length of Visible Light 10h 06m
Length of Day
8h 55m
Waning Gibbous, 77% of the Moon is Illuminated
Jan 21
Waning Gibbous
Jan 24
Last Quarter
Jan 30
New
Feb 6
First Quarter
Feb 15
Full

Hourly Weather History & Observations

Time (CET) Temp. Windchill Dew Point Humidity Pressure Visibility Wind Dir Wind Speed Gust Speed Precip Events Conditions
12:00 AM 40 °F - 37 °F 84% 29.92 in 4 mi West 3.5 mph - -   Partly Cloudy
12:00 AM 39.2 °F 37.0 °F 37.4 °F 93% 29.89 in 3.7 mi West 3.5 mph - N/A   Unknown
12:30 AM 39.2 °F 35.9 °F 37.4 °F 93% 29.89 in 3.7 mi West 4.6 mph - N/A   Mostly Cloudy
1:00 AM 39 °F - 36 °F 84% 29.92 in 3 mi West 5.8 mph - -   Scattered Clouds
1:00 AM 39.2 °F 35.0 °F 35.6 °F 87% 29.89 in 3.1 mi WSW 5.8 mph - N/A   Partly Cloudy
1:30 AM 37.4 °F 31.4 °F 35.6 °F 93% 29.89 in 2.5 mi West 8.1 mph - N/A   Partly Cloudy
2:00 AM 37 °F - 34 °F 84% 29.93 in 2 mi West 6.9 mph - -   Mist
2:00 AM 37.4 °F 32.1 °F 33.8 °F 87% 29.89 in 2.5 mi West 6.9 mph - N/A   Mist
2:30 AM 35.6 °F 31.7 °F 33.8 °F 93% 29.89 in 2.5 mi WSW 4.6 mph - N/A   Mist
3:00 AM 36 °F - 33 °F 86% 29.94 in 2 mi WSW 5.8 mph - -   Mist
3:00 AM 35.6 °F 30.7 °F 33.8 °F 93% 29.92 in 2.5 mi WSW 5.8 mph - N/A   Mist
3:30 AM 35.6 °F 28.6 °F 32.0 °F 87% 29.92 in 0.3 mi WSW 9.2 mph - N/A Fog Fog
4:00 AM 34 °F - 33 °F 92% 29.96 in 0 mi West 6.9 mph - - Fog Heavy Fog
4:00 AM 33.8 °F 27.7 °F 32.0 °F 93% 29.92 in 0.2 mi West 6.9 mph - N/A Fog Fog
4:30 AM 33.8 °F 27.0 °F 32.0 °F 93% 29.92 in 0.1 mi West 8.1 mph - N/A Fog Fog
5:00 AM 34 °F - 33 °F 95% 29.96 in 0 mi West 8.1 mph - - Fog Heavy Fog
5:00 AM 33.8 °F 27.0 °F 33.8 °F 100% 29.92 in 0.1 mi West 8.1 mph - N/A Fog Fog
5:30 AM 33.8 °F 27.0 °F 33.8 °F 100% 29.95 in 0.2 mi West 8.1 mph - N/A Fog Fog
6:00 AM 35 °F - 34 °F 92% 29.97 in 0 mi West 6.9 mph - - Fog Heavy Fog
6:00 AM 35.6 °F 29.2 °F 33.8 °F 93% 29.95 in 0.2 mi West 8.1 mph - N/A Fog Fog
6:30 AM 35.6 °F 29.2 °F 33.8 °F 93% 29.95 in 0.2 mi West 8.1 mph - N/A Fog Fog
7:00 AM 36 °F - 35 °F 92% 29.98 in 0 mi West 6.9 mph - - Fog Heavy Fog
7:00 AM 35.6 °F 29.9 °F 33.8 °F 93% 29.95 in 0.2 mi West 6.9 mph - N/A Fog Fog
7:30 AM 35.6 °F 30.7 °F 35.6 °F 100% 29.95 in 0.6 mi WSW 5.8 mph - N/A Fog Fog
8:00 AM 36 °F - 35 °F 96% 29.98 in 1 mi SW 6.9 mph - - Fog Light Fog
8:00 AM 35.6 °F 29.9 °F 35.6 °F 100% 29.95 in 1.0 mi SW 6.9 mph - N/A   Mostly Cloudy
8:30 AM 37.4 °F 31.4 °F 35.6 °F 93% 29.95 in 1.4 mi SSW 8.1 mph - N/A   Mostly Cloudy
9:00 AM 37 °F - 36 °F 94% 29.98 in 2 mi SSW 8.1 mph - -   Mist
9:00 AM 37.4 °F 32.1 °F 35.6 °F 93% 29.95 in 2.5 mi SSW 6.9 mph - N/A   Scattered Clouds
9:30 AM 37.4 °F 32.1 °F 35.6 °F 93% 29.95 in 2.8 mi South 6.9 mph - N/A   Mostly Cloudy
10:00 AM 38 °F - 36 °F 92% 29.99 in 3 mi South 5.8 mph - -   Partly Cloudy
10:00 AM 37.4 °F 32.8 °F 37.4 °F 100% 29.95 in 3.1 mi South 5.8 mph - N/A   Scattered Clouds
10:30 AM 37.4 °F 32.1 °F 35.6 °F 93% 29.95 in 1.4 mi SSE 6.9 mph - N/A   Scattered Clouds
11:00 AM 38 °F - 36 °F 92% 29.99 in 2 mi SSE 8.1 mph - -   Mist
11:00 AM 37.4 °F 31.4 °F 37.4 °F 100% 29.95 in 2.5 mi SSE 8.1 mph - N/A   Overcast
11:30 AM 37.4 °F 32.1 °F 37.4 °F 100% 29.98 in 4.3 mi Variable 6.9 mph 20.7 mph N/A   Overcast
12:00 PM 38 °F - 37 °F 95% 29.99 in 5 mi South 8.1 mph - -   Overcast
12:00 PM 39.2 °F 33.6 °F 37.4 °F 93% 29.98 in 5.0 mi South 8.1 mph - N/A   Mostly Cloudy
12:30 PM 39.2 °F 32.5 °F 37.4 °F 93% 29.95 in 5.6 mi South 10.4 mph - N/A   Mostly Cloudy
1:00 PM 39 °F - 37 °F 89% 29.98 in 7 mi South 9.2 mph - -   Partly Cloudy
1:00 PM 39.2 °F 33.0 °F 37.4 °F 93% 29.95 in 6.2 mi SSW 9.2 mph - N/A   Mostly Cloudy
1:30 PM 39.2 °F 33.6 °F 37.4 °F 93% 29.95 in 6.2 mi SSW 8.1 mph - N/A   Overcast
2:00 PM 39 °F - 37 °F 89% 29.97 in 7 mi SSW 10.4 mph - -   Overcast
2:00 PM 39.2 °F 32.5 °F 37.4 °F 93% 29.95 in 6.2 mi SSW 10.4 mph - N/A   Overcast
2:30 PM 39.2 °F 32.5 °F 35.6 °F 87% 29.92 in 6.2 mi SSW 10.4 mph - N/A   Overcast
3:00 PM 39 °F - 36 °F 84% 29.96 in 7 mi SSW 8.1 mph - -   Overcast
3:00 PM 39.2 °F 33.6 °F 35.6 °F 87% 29.92 in 6.2 mi SSW 8.1 mph - N/A   Overcast
3:30 PM 39.2 °F 33.6 °F 35.6 °F 87% 29.92 in 6.2 mi SSW 8.1 mph - N/A   Overcast
4:00 PM 38 °F - 36 °F 87% 29.95 in 7 mi South 6.9 mph - -   Overcast
4:00 PM 39.2 °F 34.2 °F 35.6 °F 87% 29.92 in 6.2 mi South 6.9 mph - N/A   Overcast
4:30 PM 37.4 °F 30.8 °F 35.6 °F 93% 29.92 in 6.2 mi South 9.2 mph - N/A   Overcast
5:00 PM 37 °F - 35 °F 87% 29.96 in 6 mi South 9.2 mph - -   Overcast
5:00 PM 37.4 °F 30.8 °F 33.8 °F 87% 29.92 in 5.6 mi South 9.2 mph - N/A   Overcast
5:30 PM 37.4 °F 31.4 °F 33.8 °F 87% 29.92 in 5.6 mi SSW 8.1 mph - N/A   Overcast
6:00 PM 36 °F - 34 °F 88% 29.96 in 6 mi South 9.2 mph - -   Overcast
6:00 PM 37.4 °F 30.8 °F 33.8 °F 87% 29.92 in 6.2 mi South 9.2 mph - N/A   Overcast
6:30 PM 37.4 °F 31.4 °F 33.8 °F 87% 29.92 in 6.2 mi South 8.1 mph - N/A   Overcast
7:00 PM 37 °F - 34 °F 84% 29.95 in 7 mi South 9.2 mph - -   Overcast
7:00 PM 37.4 °F 31.4 °F 33.8 °F 87% 29.92 in 6.2 mi South 8.1 mph - N/A   Overcast
7:30 PM 37.4 °F 30.8 °F 33.8 °F 87% 29.92 in 6.2 mi South 9.2 mph - N/A   Overcast
8:00 PM 38 °F - 34 °F 81% 29.95 in 9 mi South 8.1 mph - -   Overcast
8:00 PM 37.4 °F 31.4 °F 33.8 °F 87% 29.92 in 6.2 mi South 8.1 mph - N/A   Overcast
8:30 PM 37.4 °F 31.4 °F 33.8 °F 87% 29.92 in 6.2 mi SSE 8.1 mph - N/A   Overcast
9:00 PM 38 °F - 34 °F 79% 29.94 in 9 mi SSE 9.2 mph - -   Overcast
9:00 PM 37.4 °F 30.8 °F 33.8 °F 87% 29.92 in 6.2 mi SSE 9.2 mph - N/A   Overcast
9:30 PM 37.4 °F 30.3 °F 33.8 °F 87% 29.92 in 6.2 mi South 10.4 mph - N/A   Overcast
10:00 PM 37 °F - 33 °F 80% 29.94 in 9 mi SSE 11.5 mph - -   Overcast
10:00 PM 37.4 °F 29.8 °F 33.8 °F 87% 29.92 in 6.2 mi SSE 11.5 mph - N/A   Overcast
10:30 PM 37.4 °F 29.8 °F 33.8 °F 87% 29.92 in 6.2 mi SSE 11.5 mph - N/A   Overcast
11:00 PM 36 °F - 33 °F 85% 29.93 in 9 mi SSE 10.4 mph - -   Overcast
11:00 PM 37.4 °F 30.3 °F 32.0 °F 81% 29.89 in 6.2 mi SSE 10.4 mph - N/A   Overcast
11:30 PM 35.6 °F 28.0 °F 32.0 °F 87% 29.89 in 6.2 mi SSE 10.4 mph - N/A   Overcast